User: anonymous   Login
Location: Betzi
(47.2343°N, 9.5260°E)
Time: 06:43:59
(UTC+00:00)
Language:

USA 306 - Orbit

View from above orbital plane
View from above orbital plane
View from above satellite
View from above satellite

Ground track
Ground track

The orbit data is extracted from the following two-line orbital elements,

1 45874U 20046B   22226.91880747 0.00008916  00000-0  59397-3 0    01
2 45874  53.9768 218.4962 0009709 168.6756 191.3243 15.06596498    00
Epoch (UTC): 14 August 2022 22:03:04
Eccentricity: 0.0009709
inclination: 53.9768°
perigee height: 540 km
apogee height: 553 km
right ascension of ascending node: 218.4962°
argument of perigee: 168.6756°
revolutions per day: 15.06596498
mean anomaly at epoch: 191.3243°
orbit number at epoch: 0

The dashed part of the orbit path shows where the satellite is in the earth's shadow,  

DLR